Regional Weather Roundup
Issued by NWS

Home | Current Version | Previous Version | Text Only | Print | Product List | Glossary Off
Versions: 1 2 3 4 5 6 7 8 9 10 11 12 13 14 15 16 17 18 19 20 21 22 23 24 25 26 27 28 29 30 31 32 33 34 35 36 37 38 39 40 41 42 43 44 45 46 47 48 49 50

000
ASUS44 KMEG 211400
RWRTN
TENNESSEE HOURLY STATE WEATHER ROUNDUP
NATIONAL WEATHER SERVICE MEMPHIS TN
900 AM CDT SUN SEP 21 2014

TNZ002-004-019-021-049-052-054-088>092-211500-
WEST TENNESSEE

CITY           SKY/WX    TMP DP  RH WIND       PRES   REMARKS
MEMPHIS INTL   MOSUNNY   78  68  71 W6        30.04R
NWS MEMPHIS      N/A     76 N/A N/A MISG        N/A
JACKSON        SUNNY     75  67  76 W10       30.02S
DYERSBURG      MOSUNNY   75  61  60 W6        30.02R
$$

TNZ008-025-027-028-033-062-065-066-211500-
NORTH MIDDLE TENNESSEE

CITY           SKY/WX    TMP DP  RH WIND       PRES   REMARKS
NASHVILLE      PTSUNNY   78  67  68 W8G16     29.99S
CLARKSVILLE    CLOUDY    72  67  84 W8        29.98R
CROSSVILLE     MOSUNNY   73  62  68 W10       30.05S
$$

TNZ061-075-076-078-094-096-097-211500-
SOUTH MIDDLE TENNESSEE

CITY           SKY/WX    TMP DP  RH WIND       PRES   REMARKS
$$

TNZ017-018-042-046-047-211500-
NORTHEAST TENNESSEE

CITY           SKY/WX    TMP DP  RH WIND       PRES   REMARKS
TRI CITIES     PTSUNNY   64  58  80 CALM      30.03S
$$

TNZ012-013-036-069-073-074-211500-
CENTRAL EAST TENNESSEE

CITY           SKY/WX    TMP DP  RH WIND       PRES   REMARKS
KNOXVILLE      MOSUNNY   73  61  65 SW15      30.00F
OAK RIDGE      SUNNY     71  63  75 VRB5      30.03S
$$

TNZ083-085-099-211500-
SOUTHEAST TENNESSEE

CITY           SKY/WX    TMP DP  RH WIND       PRES   REMARKS
CHATTANOOGA    MOSUNNY   72  62  71 S5        30.03F
$$

SKY/WX REPORTED AS FAIR MEANS FEW OR NO CLOUDS BELOW
12 THOUSAND FEET.




USA.gov is the U.S. government's official web portal to all federal, state and local government web resources and services.